User: anonymous   Login
Location: Herm
(49.4830°N, 2.4500°W)
Time: 04:25:24
(UTC+01:00)
Language:

NOAA 15 - Orbit

View from above orbital plane
View from above orbital plane
View from above satellite
View from above satellite

Ground track
Ground track

The orbit data is extracted from the following two-line orbital elements,

1 25338U 98030A   21289.53877037  .00000051  00000-0  39751-4 0  9998
2 25338  98.6734 316.9290 0009331 290.1034  69.9141 14.26063473218507
Epoch (UTC): 16 October 2021 12:55:49
Eccentricity: 0.0009331
inclination: 98.6734°
perigee height: 798 km
apogee height: 811 km
right ascension of ascending node: 316.9290°
argument of perigee: 290.1034°
revolutions per day: 14.26063473
mean anomaly at epoch: 69.9141°
orbit number at epoch: 21850

The dashed part of the orbit path shows where the satellite is in the earth's shadow,  

DLR